Regional Weather Roundup
Issued by NWS

Home | Current Version | Previous Version | Text Only | Print | Product List | Glossary Off
Versions: 1 2 3 4 5 6 7 8 9 10 11 12 13 14 15 16 17 18 19 20 21 22 23 24 25 26 27 28

819
ASUS45 KSLC 211910
RWRUT

UTAH REGIONAL WEATHER ROUNDUP
NATIONAL WEATHER SERVICE SALT LAKE CITY UT
100 PM MDT THU MAY 21 2015

UTZ001>011-023>025-212000-

NORTHERN UTAH

CITY           SKY/WX    TMP DP  RH WIND       PRES   REMARKS
BRIGHAM CITY   SUNNY     67  43  41 N5        29.94F
HILL AFB       PTSUNNY   66  41  39 N7        29.94F
LOGAN          SUNNY     64  47  53 N7        29.95F
OGDEN          MOSUNNY   68  47  46 NW9       29.93F
PROVO AIRPORT  PTSUNNY   61  39  44 E9          N/A
SALT LAKE CITY PTSUNNY   65  46  50 N9        29.93F
VERNAL         PTSUNNY   63  41  44 VRB3      30.02F
WENDOVER       MOSUNNY   64  43  45 E8        29.94F
HEBER CITY     CLOUDY    59  41  51 W7        29.99F THUNDER
WEST JORDAN    SUNNY     66  48  52 N12       29.94F

$$

UTZ012>022-026-027-212000-

SOUTHERN/CENTRAL UTAH

CITY           SKY/WX    TMP DP  RH WIND       PRES   REMARKS
BLANDING       MOSUNNY   68  33  27 SE9G21    30.09F
BRYCE CANYON   CLOUDY    56  23  27 SE16G26   30.07F
CEDAR CITY     CLOUDY    56  31  38 SW18      29.98R
DELTA          MOSUNNY   67  36  31 S3        29.93F
HANKSVILLE     PTSUNNY   70  32  24 SE6       29.96F
MILFORD        CLOUDY    65  33  30 VRB7      29.94F
MOAB/CYNLANDS  SUNNY     71  29  21 VRB3      29.93F
PRICE          CLOUDY    64  31  28 S10       30.00F
ST GEORGE      CLOUDY    72  34  25 N10       29.90F

$$

REGIONAL REPORTS     COLORADO/ARIZONA

CITY           SKY/WX    TMP DP  RH WIND       PRES   REMARKS
CRAIG, CO      PTSUNNY   63  37  38 VRB5      30.07F
GRAND JUNCTION CLOUDY    69  37  30 S6        29.96F
RIFLE          PTSUNNY   66  40  38 S6        30.02F
MONTROSE       CLOUDY    65  38  36 NW7       30.06S
CORTEZ         SUNNY     69  39  33 SE14G24   30.03F
PAGE, AZ       NOT AVBL
GRAND CANYON   CLOUDY    59  22  24 S7        30.04F
KINGMAN        CLOUDY    75  20  12 SE9       29.89S
FLAGSTAFF      PTSUNNY   58  28  32 S10G21    30.06F

$$

REGIONAL REPORTS    NEVADA/IDAHO/WYOMING

CITY           SKY/WX    TMP DP  RH WIND       PRES   REMARKS
LAS VEGAS, NV  PTSUNNY   77  29  17 S15G21    29.78S
ELY            CLOUDY    57  31  37 N12G17    29.98F
ELKO           MOSUNNY   64  35  34 W6        29.90F
POCATELLO, ID  MOSUNNY   64  46  52 E3        29.97F
BURLEY         MOSUNNY   67  44  43 VRB3      29.93F
EVANSTON, WY   PTSUNNY   51  43  74 E18G25    30.07F
ROCK SPRINGS   PTSUNNY   57  44  62 SE8G18    30.09F
KEMMERER       PTSUNNY   54  39  58 E14G20    30.10F

$$



USA.gov is the U.S. government's official web portal to all federal, state and local government web resources and services.